Tracking 19638 objects as of 19-Apr-2019
HD Live streaming from Space Station
objects crossing your sky now

OPS 9381 (GGTS)

Track OPS 9381 (GGTS) now!
OPS 9381 (GGTS) is classified as:


NORAD ID: 2207
Int'l Code: 1966-053A
Perigee: 33,660.2 km
Apogee: 33,859.1 km
Inclination: 4.0 °
Period: 1,333.4 minutes
Semi major axis: 40130 km
RCS: 0.8912 m2 (medium)
Launch date: June 16, 1966
Source: United States (US)
Launch site: AIR FORCE EASTERN TEST RANGE (AFETR)
aabbcc
Your satellite tracking list
Your tracking list is empty




NASA's NSSDC Master Catalog

Two Line Element Set (TLE):
1  2207U 66053A   19108.62174387 -.00000142  00000-0  00000+0 0  9995
2  2207   3.9712  58.6439 0024775 179.4740 271.9729  1.07991310207903
Source of the keplerian elements: AFSPC